[[{"header":{"parameterUnit":"m.s-1","parameterCategory":1,"la1":30.2991,"la2":30.254,"lo1":-89.0895,"lo2":-89.0444,"dy":0.0017,"dx":0.0017,"nx":28,"ny":28,"refTime":"2024-05-24T03:00:00:Z","depth":0,"parameterNumber":2,"parameterNumberName":"U-component_of_WINDS"},"data":[0,0,0,0,0,0,0,0,0,0,0,0,0,0,0,0,0,0,0,0,0,0,0,0,0,0,0,0,0,0,0,0,0,0,0,0,0,0,0,0,0,0,0,0,0,0,0,0,0,0,0,0,0,0,0,0,0,0,1.1497,1.1496,0,1.1457,1.1457,1.1456,1.1417,1.1417,1.1416,1.1416,1.1376,1.1376,1.1375,0,0,0,0,0,0,0,0,0,0,0,0,0,1.1539,1.1538,1.1497,1.1496,1.1496,1.1457,1.1456,1.1456,1.1418,1.1417,1.1416,1.1416,1.1377,1.1376,1.1375,0,0,0,0,0,0,0,0,0,0,0,0,0,1.1512,1.1538,1.1497,1.1472,1.1469,1.1457,1.1456,1.1456,1.1418,1.1417,1.1416,1.1416,1.1377,1.1376,1.1375,1.1385,0,0,1.1372,1.1372,0,0,0,0,0,0,0,0,1.1514,1.1511,1.1476,1.1474,1.1471,1.1441,1.1457,1.1432,1.1418,1.1437,1.1416,1.1415,1.1399,1.1396,1.139,1.1383,1.1381,1.1372,1.1372,1.1371,1.1371,0,0,0,0,0,0,0,1.1515,1.1512,1.1481,1.1476,1.1472,1.1462,1.1458,1.1452,1.1423,1.1436,1.1433,1.1428,1.1397,1.1391,1.1389,1.138,1.1372,1.1372,1.1371,1.1371,1.1376,1.1377,0,0,0,0,0,0,1.1521,1.1514,1.1482,1.148,1.1491,1.1462,1.1457,1.1452,1.1423,1.1418,1.1429,1.1427,1.1393,1.139,1.1387,1.1395,1.1371,1.1371,1.137,1.1376,1.1376,1.1377,0,0,0,0,0,0,1.1522,1.1519,1.1484,1.1496,1.1491,1.1462,1.1456,1.1451,1.1445,1.1418,1.1412,1.1428,1.1392,1.1389,1.1385,1.1393,1.137,1.1369,1.1375,1.1376,1.1377,1.1411,0,0,0,0,0,0,1.1524,1.1519,1.1523,1.1496,1.149,1.1482,1.1457,1.1451,1.1444,1.144,1.1416,1.1411,1.1391,1.1386,1.1384,1.1391,1.1369,1.1374,1.1375,1.1377,1.1409,1.1413,1.1416,0,0,0,0,0,1.1525,1.1535,1.1523,1.152,1.1494,1.1483,1.1479,1.1456,1.1445,1.1447,1.1429,1.1412,1.1393,1.1386,1.1383,1.139,1.1373,1.1375,1.1376,1.1407,1.1412,1.1416,0,0,0,0,0,0,1.1564,1.1531,1.1518,1.1519,1.1504,1.1476,1.148,1.1463,1.1451,1.1448,1.1421,1.1415,1.1414,1.1402,1.1396,1.1397,1.138,1.1381,1.1405,1.1409,1.1413,1.1415,1.1368,0,0,0,0,0,1.1572,1.1566,1.1538,1.1541,1.1534,1.1508,1.1503,1.1486,1.1469,1.1463,1.1445,1.143,1.142,1.1414,1.1404,1.1407,1.14,1.141,1.1414,1.1417,1.1418,1.1417,1.142,1.1382,1.1382,1.1382,0,0,1.159,1.1571,1.1569,1.1549,1.1535,1.1528,1.1503,1.1498,1.1492,1.1462,1.1457,1.1443,1.1424,1.1423,1.1422,1.1413,1.1427,1.1419,1.1422,1.1421,1.1419,1.1422,1.1426,1.1383,1.1383,1.1383,0,0,1.1619,1.1605,1.1605,1.1592,1.1571,1.1553,1.1553,1.1528,1.1517,1.1511,1.1488,1.1481,1.1466,1.1452,1.1443,1.1465,1.1448,1.1463,1.1482,1.1481,1.1484,1.1486,1.1492,1.1495,1.1464,1.1464,1.1464,0,1.1643,1.1632,1.1608,1.1603,1.1594,1.1565,1.1565,1.1553,1.1531,1.1525,1.1515,1.1493,1.1479,1.1473,1.1478,1.1473,1.1471,1.1465,1.1485,1.1488,1.149,1.1495,1.1497,1.1466,1.1466,1.1465,1.1465,0,1.1663,1.1656,1.1658,1.1636,1.1627,1.1625,1.1599,1.1594,1.1578,1.1561,1.1554,1.1536,1.152,1.1518,1.1503,1.151,1.1504,1.1491,1.1473,1.1495,1.15,1.1502,1.1468,1.1468,1.1467,1.1467,0,0,1.1715,1.1677,1.1679,1.1667,1.1642,1.1635,1.1631,1.1615,1.161,1.1595,1.159,1.1577,1.1563,1.1553,1.1536,1.1535,1.1551,1.1521,1.152,1.1526,1.1556,1.1565,1.1568,1.154,1.154,1.1541,1.1557,0,1.1737,1.1728,1.1705,1.1702,1.1694,1.1666,1.1662,1.1646,1.163,1.1621,1.1603,1.1593,1.1577,1.157,1.1569,1.155,1.1557,1.1549,1.1534,1.1534,1.1538,1.1571,1.1581,1.1597,1.1558,1.1559,1.1559,0,1.1763,1.1748,1.1745,1.1718,1.1713,1.171,1.1693,1.1685,1.1665,1.1653,1.1641,1.1622,1.1615,1.16,1.1589,1.1584,1.1577,1.1567,1.1567,1.1564,1.1547,1.1567,1.1602,1.1604,1.1562,1.1562,1.1561,0,1.1799,1.1778,1.1773,1.1764,1.1733,1.1731,1.1718,1.1698,1.1689,1.1674,1.1668,1.1653,1.1644,1.1632,1.1609,1.16,1.16,1.1584,1.1589,1.159,1.159,1.159,1.1623,1.1588,1.1588,1.1588,1.1588,0,1.1826,1.1824,1.1788,1.1785,1.1782,1.1755,1.1753,1.1737,1.1719,1.1711,1.1687,1.1681,1.1651,1.1641,1.1623,1.1616,1.1613,1.1602,1.1597,1.1604,1.1605,1.1598,1.1595,1.1588,1.1588,1.1588,1.1588,0,1.1865,1.1841,1.1833,1.1804,1.1796,1.1795,1.177,1.1765,1.1747,1.1738,1.1734,1.1706,1.1693,1.1669,1.1649,1.1637,1.1633,1.1625,1.1639,1.1636,1.1642,1.1641,1.1671,1.1673,1.1638,1.1638,1.1639,0,1.1883,1.1881,1.1851,1.1844,1.1831,1.1821,1.1811,1.1785,1.1776,1.1752,1.175,1.1734,1.172,1.17,1.1678,1.1662,1.1653,1.1664,1.1651,1.1656,1.1651,1.1651,1.165,1.1667,1.1668,1.1668,1.1669,0,1.1917,1.1905,1.1892,1.1874,1.1864,1.1849,1.1833,1.1828,1.1798,1.1789,1.1775,1.1764,1.1743,1.1727,1.1708,1.1694,1.1676,1.1673,1.1673,1.1679,1.1687,1.1681,1.1646,1.1672,1.1672,1.1672,1.1672,1.1671,1.1944,1.1941,1.1918,1.1904,1.1889,1.1874,1.1868,1.1849,1.1836,1.1816,1.1802,1.1788,1.1767,1.1739,1.1726,1.1714,1.1706,1.1707,1.1707,1.1707,1.1709,1.169,1.1711,1.1711,1.1711,1.1711,1.1711,0,1.1976,1.196,1.1947,1.1925,1.1914,1.1897,1.1878,1.187,1.1858,1.184,1.1826,1.1808,1.1793,1.1769,1.1751,1.1747,1.1738,1.1743,1.1742,1.1739,1.1718,1.1719,1.175,1.175,1.175,1.175,1.175,1.175,1.199,1.1982,1.1967,1.1951,1.1935,1.1921,1.1911,1.1897,1.1882,1.1863,1.185,1.1834,1.1813,1.1794,1.1778,1.1772,1.1766,1.1773,1.1764,1.1744,1.1741,1.1737,1.1738,1.1772,1.1773,1.1785,1.1785,1.1786]},{"header":{"parameterUnit":"m.s-1","parameterCategory":1,"la1":30.2991,"la2":30.254,"lo1":-89.0895,"lo2":-89.0444,"dy":0.0017,"dx":0.0017,"nx":28,"ny":28,"refTime":"2024-05-24T03:00:00:Z","depth":0,"parameterNumber":3,"parameterNumberName":"V-component_of_WINDS"},"data":[0,0,0,0,0,0,0,0,0,0,0,0,0,0,0,0,0,0,0,0,0,0,0,0,0,0,0,0,0,0,0,0,0,0,0,0,0,0,0,0,0,0,0,0,0,0,0,0,0,0,0,0,0,0,0,0,0,0,5.1153,5.1154,0,5.1179,5.1179,5.1179,5.1111,5.1109,5.1107,5.1105,5.1128,5.113,5.1133,0,0,0,0,0,0,0,0,0,0,0,0,0,5.1041,5.1044,5.1153,5.1154,5.1154,5.1179,5.1179,5.1179,5.1111,5.1109,5.1106,5.1104,5.1127,5.113,5.1133,0,0,0,0,0,0,0,0,0,0,0,0,0,5.1081,5.1045,5.1153,5.1123,5.1121,5.1179,5.1179,5.1179,5.1112,5.1109,5.1106,5.1103,5.1126,5.113,5.1133,5.1221,0,0,5.1145,5.1147,0,0,0,0,0,0,0,0,5.1078,5.1085,5.1127,5.1125,5.1123,5.1138,5.1148,5.1193,5.1113,5.1115,5.1105,5.1101,5.1134,5.1137,5.1148,5.1222,5.1223,5.1146,5.1148,5.115,5.1151,0,0,0,0,0,0,0,5.1076,5.1083,5.1163,5.1128,5.1125,5.1107,5.1109,5.1156,5.1142,5.1115,5.111,5.1114,5.1132,5.1145,5.1148,5.1223,5.1146,5.1149,5.1151,5.1153,5.1366,5.137,0,0,0,0,0,0,5.1078,5.1082,5.1162,5.1164,5.1092,5.1111,5.1114,5.1137,5.1141,5.1139,5.1117,5.1111,5.114,5.1144,5.1149,5.1249,5.115,5.1153,5.1155,5.1363,5.1367,5.1371,0,0,0,0,0,0,5.1075,5.1085,5.1161,5.1121,5.113,5.1117,5.1143,5.1139,5.1152,5.1143,5.1139,5.1133,5.1137,5.1143,5.1203,5.1249,5.1155,5.1159,5.1359,5.1364,5.1369,5.1453,0,0,0,0,0,0,5.1073,5.1085,5.112,5.1123,5.1132,5.1217,5.1146,5.1142,5.1159,5.1151,5.1157,5.1155,5.1135,5.1198,5.1207,5.1253,5.1162,5.1355,5.1361,5.1367,5.1446,5.146,5.1472,0,0,0,0,0,5.1069,5.1142,5.1122,5.1132,5.1175,5.122,5.1225,5.1202,5.1163,5.1196,5.119,5.1155,5.1243,5.1204,5.1214,5.1262,5.1352,5.136,5.1367,5.144,5.1457,5.1472,0,0,0,0,0,0,5.1144,5.1142,5.1119,5.1196,5.1209,5.1208,5.125,5.1221,5.1244,5.1236,5.1206,5.1208,5.1272,5.1273,5.123,5.1345,5.129,5.13,5.1342,5.1359,5.1372,5.137,5.1165,0,0,0,0,0,5.117,5.1208,5.1203,5.1271,5.1279,5.1263,5.1282,5.1263,5.1274,5.1279,5.1277,5.1288,5.1318,5.1339,5.1366,5.1445,5.1444,5.1483,5.1496,5.1507,5.1516,5.1555,5.1572,5.1395,5.1395,5.1395,0,0,5.1224,5.1227,5.1252,5.1287,5.1294,5.1332,5.1268,5.1312,5.1339,5.1285,5.1341,5.134,5.135,5.142,5.145,5.1422,5.1564,5.1517,5.1526,5.1528,5.1565,5.1582,5.1597,5.1401,5.14,5.1399,0,0,5.134,5.1347,5.1403,5.1412,5.1424,5.1413,5.1426,5.1429,5.1427,5.1482,5.1442,5.1473,5.1526,5.1535,5.1546,5.1663,5.163,5.1672,5.1741,5.178,5.1794,5.1806,5.1846,5.1861,5.1681,5.1681,5.1682,0,5.1404,5.1461,5.1436,5.1481,5.1496,5.145,5.1505,5.1514,5.1534,5.1545,5.1514,5.1578,5.1582,5.1651,5.1679,5.1691,5.1704,5.1671,5.1794,5.1806,5.1817,5.1855,5.187,5.1686,5.1686,5.1685,5.1685,0,5.1539,5.1578,5.1622,5.1643,5.1663,5.1713,5.1693,5.1716,5.1695,5.1687,5.1743,5.1745,5.1771,5.1787,5.1767,5.1853,5.1835,5.18,5.1744,5.1839,5.1874,5.1889,5.1693,5.1692,5.169,5.1689,0,0,5.1704,5.1709,5.1725,5.1733,5.1741,5.1771,5.1818,5.1843,5.1863,5.1878,5.1915,5.196,5.1927,5.194,5.192,5.1954,5.2044,5.1914,5.1914,5.1937,5.2137,5.2162,5.218,5.2023,5.2025,5.2028,5.2135,0,5.1818,5.1899,5.1877,5.1957,5.1992,5.1947,5.1988,5.1997,5.199,5.2017,5.2008,5.204,5.1995,5.2002,5.2034,5.2027,5.2084,5.2019,5.2056,5.2057,5.2054,5.2198,5.2226,5.2327,5.2149,5.2151,5.2153,0,5.1961,5.1981,5.2066,5.2066,5.208,5.2117,5.2137,5.2164,5.2172,5.2165,5.2178,5.2151,5.2195,5.2139,5.2199,5.2155,5.2169,5.2167,5.217,5.2172,5.211,5.2202,5.2359,5.2374,5.2174,5.2173,5.2171,0,5.2071,5.2119,5.2175,5.2183,5.2186,5.2212,5.2214,5.2219,5.2235,5.2253,5.2263,5.2285,5.2297,5.2315,5.2293,5.2255,5.2355,5.2298,5.2348,5.2349,5.2371,5.237,5.2531,5.2382,5.2382,5.2382,5.2381,0,5.2199,5.2252,5.2224,5.2259,5.2316,5.2288,5.2345,5.2342,5.2346,5.2378,5.234,5.2371,5.2341,5.2368,5.2352,5.2402,5.2409,5.2402,5.2397,5.2405,5.2406,5.2413,5.2405,5.2386,5.2385,5.2384,5.2383,0,5.2332,5.2316,5.2373,5.237,5.2371,5.2413,5.2409,5.244,5.243,5.247,5.2478,5.2461,5.2491,5.2472,5.2502,5.2491,5.2556,5.2542,5.2554,5.2549,5.26,5.2595,5.2771,5.2792,5.2631,5.2632,5.2634,0,5.2414,5.2454,5.2454,5.2473,5.2477,5.2508,5.2524,5.2498,5.2516,5.2527,5.2556,5.2582,5.2602,5.2651,5.2641,5.2664,5.2649,5.2709,5.2652,5.2658,5.2648,5.2645,5.2648,5.272,5.2722,5.2723,5.2725,0,5.2561,5.2551,5.2575,5.2597,5.2617,5.2632,5.2645,5.2662,5.2635,5.2657,5.2687,5.2702,5.2732,5.2759,5.2777,5.2777,5.2746,5.2743,5.2755,5.2763,5.2768,5.2764,5.2584,5.2739,5.2737,5.2736,5.2735,5.2735,5.267,5.2702,5.2707,5.2735,5.2741,5.2753,5.2781,5.2774,5.2799,5.2821,5.2804,5.2839,5.2844,5.2865,5.2869,5.2896,5.2871,5.289,5.2894,5.2899,5.2905,5.2765,5.2899,5.2899,5.2898,5.2898,5.2898,0,5.2814,5.2814,5.284,5.2858,5.288,5.2849,5.286,5.288,5.2912,5.2919,5.2939,5.2972,5.2997,5.2989,5.301,5.3033,5.3019,5.3039,5.3037,5.3037,5.2927,5.2913,5.305,5.305,5.305,5.305,5.305,5.305,5.2891,5.2943,5.2932,5.2986,5.2986,5.302,5.3029,5.3039,5.3044,5.3083,5.3103,5.3098,5.3098,5.3119,5.314,5.3137,5.3146,5.3171,5.3163,5.306,5.3045,5.303,5.3017,5.3174,5.3174,5.327,5.3271,5.3272]}]]